Location: La Sagrera
(41.4167°N, 2.1833°E)
Time: 01:12:45
(UTC+00:00)

Daily predictions for brighter satellites

Satellite Brightness Start Highest point End
(mag) Time Altitude Azimuth Time Altitude Azimuth Time Altitude Azimuth
Lacrosse 5 4.2 00:02:26 10° WNW 00:03:12 13° W 00:03:12 13° W
Cosmos 1655 Rocket 4.3 00:07:30 48° WSW 00:08:25 53° WNW 00:14:31 10° N
COSMOS 2455 2.9 00:11:40 60° ESE 00:11:45 60° ESE 00:17:41 10° NE
S3M 4.2 00:06:11 10° NNW 00:12:06 51° W 00:12:36 50° WSW
Cosmos 1726 3.8 00:08:52 10° NNW 00:10:54 30° NNW 00:10:54 30° NNW
Cosmos 2228 3.7 00:12:05 10° N 00:15:32 49° NE 00:15:32 49° NE
Meteor 2-15 Rocket 4.3 00:13:57 10° N 00:20:09 86° E 00:20:55 70° SSE
Cosmos 1953 3.9 00:17:02 10° NNW 00:19:26 30° NW 00:19:26 30° NW
Cosmos 1340 Rocket 4.1 00:18:29 10° NNW 00:21:08 37° NW 00:21:08 37° NW
COSMOS 2487 4.4 00:25:26 10° NNW 00:27:17 29° N 00:27:17 29° N
Cosmos 1833 4.1 00:24:10 10° NNW 00:29:45 72° WSW 00:29:45 72° WSW
USA 215 4.3 00:33:07 28° WSW 00:33:07 28° WSW 00:37:20 10° WNW
Cosmos 1626 3.7 00:34:31 32° NE 00:34:31 32° NE 00:36:57 10° NNE
Cosmos 1656 Rocket 4.1 00:33:51 48° W 00:34:40 52° WNW 00:40:09 10° NNE
FALCON 9 R/B 3.1 00:38:25 51° S 00:38:50 52° SSE 00:54:52 10° E
Cosmos 1606 Rocket 4.0 00:35:21 10° NNW 00:38:48 54° NNW 00:38:48 54° NNW
CZ-4 R/B 4.3 00:40:45 10° N 00:45:23 48° WNW 00:45:23 48° WNW
Meteor 2-21 4.3 00:45:34 66° S 00:46:33 90° E 00:52:46 10° N
Cosmos 2297 Rocket 4.5 00:44:47 10° N 00:49:01 21° NE 00:53:13 10° E
SL-4 R/B 2.4 00:49:12 77° NNW 00:49:12 77° NNW 00:53:55 10° NE
Cosmos 1674 4.3 00:53:21 27° NW 00:53:21 27° NW 00:55:40 10° NNW
NOSS 3-2 (C) 4.2 00:44:58 10° NW 00:52:33 57° WSW 00:54:29 48° SSW
PSLV R/B 4.4 00:49:41 10° N 00:53:53 42° WNW 00:53:53 42° WNW
ATLAS CENTAUR R/B 1.8 00:56:56 62° NNW 00:56:56 62° NNW 01:00:47 10° NNE
SL-19 R/B 4.1 00:53:48 10° NNE 00:59:15 88° WNW 01:00:03 67° SSW
SL-16 R/B 3.3 00:56:01 24° SE 00:59:29 48° ENE 01:05:21 10° N
NOSS 3-4 (A) 4.0 00:57:31 36° W 00:59:31 49° NW 01:05:37 10° NNE
NOSS 3-4 (C) 4.0 00:57:38 36° W 00:59:37 49° NW 01:05:44 10° NNE
BREEZE-M R/B 3.4 01:01:07 56° E 01:01:07 56° E 01:03:50 10° ENE
Spot 1 4.1 01:00:54 88° E 01:00:55 88° E 01:05:44 10° NNW
Cosmos 1777 Rocket 4.0 00:55:53 10° NNW 01:01:09 80° ENE 01:01:54 65° SE
Timation 2 Rocket 4.2 00:55:03 10° NNW 01:01:21 64° ENE 01:04:30 29° SE
ATLAS 3B R/B 2.7 01:01:33 10° NW 01:08:25 86° NE 01:12:43 26° SE
BREEZE-M DEB (TANK) 3.7 01:12:39 24° NNE 01:12:39 24° NNE 01:13:54 10° NE
CENTAUR R/B 3.4 01:04:26 10° NW 01:12:24 52° WSW 01:14:47 42° SSW
Meteor 2-21 Rocket 4.4 01:11:40 56° SW 01:12:59 74° W 01:19:10 10° N
Cosmos 1745 Rocket 4.0 01:12:45 49° SSE 01:14:28 76° E 01:20:36 10° N
Cosmos 1892 Rocket 4.4 01:14:51 40° WNW 01:14:51 40° WNW 01:18:45 10° N
Cosmos 1867 3.6 01:11:26 10° NW 01:16:44 58° WSW 01:16:44 58° WSW
RESURS DK-1 2.5 01:19:17 69° NNW 01:19:17 69° NNW 01:23:11 10° NNE
Meteor 1-24 Rocket 3.8 01:22:03 49° WSW 01:22:45 52° WNW 01:28:00 10° N
Cosmos 2227 Rocket 3.8 01:19:49 10° N 01:24:55 33° ENE 01:29:59 10° ESE
Cosmos 1356 Rocket 3.4 01:21:25 10° N 01:25:34 72° E 01:25:49 69° ESE
Cosmos 1697 Rocket 4.5 01:23:12 17° SE 01:25:35 22° E 01:29:49 10° NE
ATLAS 2AS CENTAUR R/B 4.0 01:23:17 19° W 01:28:26 40° NW 01:35:50 10° NNE
CZ-2D R/B 2.1 01:23:43 10° NNE 01:28:59 72° ESE 01:30:15 51° SSE
CZ-4C R/B 3.3 01:30:46 83° S 01:30:56 88° W 01:35:15 10° NNW
ADEOS II 3.6 01:27:01 10° NE 01:31:34 29° E 01:34:07 20° SE
DELTA 2 DEB (DPAF) 4.3 01:34:11 56° W 01:34:11 56° W 01:38:27 10° NNW
STARLINK-1228 4.1 01:32:21 10° NW 01:35:35 45° NNE 01:38:48 10° ESE
STARLINK-1234 4.1 01:33:47 10° NW 01:36:47 41° NNE 01:37:03 40° NE
USA 81 4.2 01:36:19 42° SSE 01:38:03 68° E 01:43:18 10° N
Resurs 1-4 Rocket 2.0 01:33:26 10° NNE 01:38:45 90° ESE 01:40:11 50° SSW
STARLINK-1209 4.0 01:36:01 10° NW 01:38:42 43° N 01:38:42 43° N
STARLINK-52 4.1 01:39:41 42° N 01:39:41 42° N 01:42:23 10° NE
Cosmos 1758 Rocket 4.4 01:39:23 34° SE 01:40:34 42° E 01:44:42 10° NNE
STARLINK-1217 4.5 01:40:36 10° NW 01:43:31 35° NNE 01:46:25 10° E
ARIANE 5 R/B 4.4 01:39:42 10° NE 01:43:35 22° E 01:46:55 12° SE
STARLINK-1229 4.5 01:41:31 10° NW 01:44:27 36° NNE 01:47:22 10° E
STARLINK-1270 4.4 01:42:23 10° NW 01:45:19 36° NNE 01:48:14 10° E
NPP 3.6 01:40:46 10° NNE 01:46:12 89° ESE 01:47:56 45° SSW
STARLINK-1189 4.4 01:44:12 10° NW 01:47:09 38° NNE 01:50:06 10° ESE
GEOS 3 Rocket 4.4 01:48:43 33° WSW 01:48:43 33° WSW 01:52:46 10° NW
STARLINK-1188 4.3 01:45:05 10° NW 01:48:03 38° NNE 01:51:00 10° ESE
STARLINK-1235 3.7 01:45:43 10° NW 01:48:44 49° NE 01:51:45 10° ESE
Meteor 1-21 Rocket 4.2 01:46:49 40° S 01:48:55 77° E 01:54:34 10° NNE
STARLINK-1187 4.0 01:46:09 10° NW 01:49:09 44° NNE 01:52:08 10° ESE
Cosmos 1656 3.8 01:48:20 39° S 01:50:22 66° ESE 01:55:59 10° NNE
STARLINK-1191 4.2 01:47:33 10° NW 01:50:30 40° NNE 01:53:27 10° ESE
STARLINK-1221 4.2 01:48:24 10° NW 01:51:22 41° NNE 01:54:20 10° ESE
STARLINK-1222 4.1 01:49:18 10° NW 01:52:16 41° NNE 01:55:14 10° ESE
CZ-4C R/B 3.0 01:50:43 27° SSE 01:52:22 34° ESE 01:57:20 10° NE
Cosmos 2084 3.8 01:52:18 49° W 01:53:11 60° NW 01:57:38 10° NNE
STARLINK-1214 4.1 01:50:13 10° NW 01:53:12 42° NNE 01:56:09 10° ESE
Cosmos 468 Rocket 4.2 01:52:22 38° SSE 01:54:09 62° ESE 01:59:13 10° NNE
SJ 16-02 2.1 01:51:37 10° N 01:55:57 52° ENE 01:59:17 16° SE
COSMOS 2455 4.4 01:54:47 17° W 01:58:05 26° NW 02:03:06 10° N
Cosmos 921 Rocket 4.2 02:00:21 27° W 02:00:57 28° WNW 02:04:40 10° N
Meteor 2-10 Rocket 3.5 01:57:49 10° N 02:03:09 83° E 02:06:01 27° SSE
Cosmos 1709 Rocket 3.9 02:01:47 34° SSW 02:04:35 81° W 02:10:45 10° N
Cosmos 1626 Rocket 4.5 02:06:42 31° W 02:07:12 32° WNW 02:11:06 10° NNW
STARLINK-1320 3.0 02:14:52 62° WNW 02:15:03 64° NW 02:18:10 10° NE
STARLINK-1322 3.0 02:15:11 61° WNW 02:15:24 64° NW 02:18:30 10° NE
STARLINK-1324 3.0 02:15:32 60° WNW 02:15:45 63° NW 02:18:52 10° NE
STARLINK-1294 3.0 02:15:47 59° WNW 02:16:02 63° NW 02:19:09 10° NE
STARLINK-1261 3.0 02:16:10 59° WNW 02:16:25 62° NW 02:19:30 10° NE
STARLINK-1325 3.0 02:16:30 58° WNW 02:16:46 61° NW 02:19:52 10° NE
STARLINK-1333 3.0 02:16:48 57° WNW 02:17:05 61° NW 02:20:10 10° NE
STARLINK-1334 3.0 02:17:07 57° WNW 02:17:25 61° NW 02:20:31 10° NE
Cosmos 1980 Rocket 3.6 02:13:40 14° SSE 02:17:43 31° ESE 02:22:37 10° NE
STARLINK-1326 3.1 02:17:28 56° WNW 02:17:46 60° NW 02:20:51 10° NE
Cosmos 2219 3.1 02:12:22 10° NNW 02:18:00 68° WSW 02:22:14 18° S
STARLINK-1323 3.1 02:17:47 55° WNW 02:18:06 60° NW 02:21:11 10° NE
STARLINK-1338 3.2 02:17:39 54° W 02:18:17 71° NW 02:21:46 10° NE
STARLINK-1349 3.1 02:18:06 55° WNW 02:18:26 59° NW 02:21:32 10° NE
STARLINK-1336 3.1 02:18:28 54° WNW 02:18:48 59° NW 02:21:53 10° NE
STARLINK-1331 3.1 02:18:45 53° WNW 02:19:06 58° NW 02:22:12 10° NE
STARLINK-1344 3.1 02:19:05 52° WNW 02:19:27 58° NW 02:22:32 10° NE
STARLINK-1343 3.1 02:19:25 52° WNW 02:19:48 57° NW 02:22:53 10° NE
STARLINK-1346 3.2 02:19:43 51° WNW 02:20:09 57° NW 02:23:15 10° NE
STARLINK-1328 3.2 02:20:05 51° WNW 02:20:29 56° NW 02:23:35 10° NE
Cosmos 1328 3.7 02:19:19 39° S 02:20:42 87° E 02:24:43 10° N
STARLINK-1354 3.2 02:20:22 50° WNW 02:20:47 56° NW 02:23:52 10° NE
STARLINK-1347 3.2 02:20:44 49° WNW 02:21:10 56° NW 02:24:14 10° NE
STARLINK-1357 3.2 02:21:02 49° WNW 02:21:28 55° NW 02:24:33 10° NE
STARLINK-1335 3.2 02:21:22 48° WNW 02:21:49 55° NW 02:24:54 10° NE
STARLINK-1327 3.2 02:21:41 47° WNW 02:22:09 54° NW 02:25:13 10° NE
STARLINK-1371 3.3 02:21:31 46° W 02:22:20 66° NW 02:25:49 10° NE
STARLINK-1340 3.3 02:22:01 47° WNW 02:22:31 54° NW 02:25:35 10° NE
STARLINK-1356 3.3 02:22:21 46° WNW 02:22:51 53° NW 02:25:55 10° NE
STARLINK-1345 3.3 02:22:41 46° WNW 02:23:12 53° NW 02:26:16 10° NE
ERS-2 3.7 02:20:04 10° SE 02:23:24 34° ENE 02:26:45 10° N
STARLINK-1355 3.3 02:22:59 45° WNW 02:23:31 53° NW 02:26:35 10° NE
STARLINK-1321 3.3 02:23:18 45° WNW 02:23:51 52° NW 02:26:55 10° NE
CRYOSAT 2 4.4 02:19:15 10° N 02:24:10 78° E 02:27:17 23° S
STARLINK-1358 3.3 02:23:39 44° WNW 02:24:13 52° NW 02:27:17 10° NE
STARLINK-1341 3.4 02:23:29 43° W 02:24:22 63° NW 02:27:51 10° NE
STARLINK-1332 3.4 02:23:57 44° WNW 02:24:31 51° NW 02:27:35 10° NE
STARLINK-1348 3.4 02:24:18 43° WNW 02:24:53 51° NW 02:27:57 10° NE
STARLINK-1330 3.4 02:24:36 42° WNW 02:25:12 51° NW 02:28:15 10° NE
STARLINK-1363 3.4 02:24:56 42° WNW 02:25:32 50° NW 02:28:35 10° NE
STARLINK-1337 3.4 02:25:15 41° WNW 02:25:52 50° NW 02:28:56 10° NE
STARLINK-1342 3.4 02:25:35 41° WNW 02:26:14 50° NNW 02:29:16 10° NE
STARLINK-1374 3.4 02:25:26 41° W 02:26:25 61° NW 02:29:54 10° NE
STARLINK-1364 3.4 02:25:55 40° WNW 02:26:34 49° NW 02:29:37 10° NE
STARLINK-1376 3.5 02:26:15 40° WNW 02:26:55 49° NNW 02:29:58 10° NE
STARLINK-1360 3.5 02:26:30 40° WNW 02:27:11 49° NW 02:30:14 10° NE
STARLINK-1361 3.5 02:26:56 39° WNW 02:27:37 48° NNW 02:30:40 10° NE
STARLINK-1367 3.5 02:27:10 38° WNW 02:27:54 48° NNW 02:30:59 10° NE
STARLINK-1366 3.5 02:27:33 38° WNW 02:28:16 47° NNW 02:31:19 10° NE
STARLINK-1339 3.5 02:27:27 38° W 02:28:31 58° NW 02:31:59 10° NE
SL-4 R/B 4.1 02:25:15 10° WNW 02:29:26 28° NNW 02:33:29 10° NE
IRS-1C 4.1 02:24:34 10° NNE 02:29:56 82° ESE 02:33:25 23° S
AQUA 4.5 02:25:49 10° N 02:30:16 41° WNW 02:32:11 28° WSW
STARLINK-1377 3.6 02:29:28 35° W 02:30:37 56° NW 02:34:04 10° NE
Cosmos 1812 Rocket 4.4 02:26:43 10° NNW 02:30:41 32° W 02:31:37 29° WSW
STARLINK-1353 3.6 02:31:17 34° W 02:32:29 53° NW 02:35:54 10° NE
CZ-4B R/B 4.3 02:28:00 10° N 02:32:47 40° WNW 02:35:13 25° WSW
Cosmos 2297 Rocket 2.2 02:27:56 10° NNW 02:33:32 63° WSW 02:39:05 10° S
STARLINK-1375 3.7 02:33:04 32° W 02:34:21 51° NNW 02:37:46 10° NE
Cosmos 540 Rocket 3.8 02:32:22 20° S 02:35:51 60° ESE 02:40:55 10° NNE
ATLAS CENTAUR R/B 4.1 02:35:37 10° NW 02:36:13 10° NW 02:36:48 10° NNW
STARLINK-1350 3.8 02:35:22 30° W 02:36:45 49° NNW 02:40:08 10° NE
Cosmos 2082 4.0 02:31:36 10° NNW 02:37:16 71° ENE 02:42:52 10° SSE
STARLINK-1204 4.4 02:34:31 10° NW 02:38:35 55° NNE 02:42:39 10° ESE
STARLINK-1352 3.9 02:37:40 27° W 02:39:11 47° NNW 02:42:35 10° NE
Cosmos 990 Rocket 3.9 02:34:10 10° NNW 02:39:23 68° WSW 02:44:34 10° S
CBERS-1 4.4 02:34:45 10° N 02:39:43 51° WNW 02:42:28 25° SW
Cosmos 1825 Rocket 3.9 02:38:21 30° SW 02:40:07 48° WNW 02:44:19 10° N
Cosmos 2278 4.1 02:36:08 18° S 02:40:13 60° ESE 02:45:47 10° NNE
STARLINK-1368 3.9 02:39:45 26° W 02:41:21 45° NNW 02:44:46 10° NE
Meteor 1-11 4.2 02:38:11 18° S 02:42:31 83° E 02:48:09 10° N
Meteor 1-28 Rocket 3.7 02:39:25 10° SSE 02:43:08 60° ENE 02:46:52 10° N
SL-16 R/B 3.5 02:41:06 22° SW 02:43:16 27° W 02:48:26 10° NW
STARLINK-1369 4.0 02:41:37 24° W 02:43:17 43° NNW 02:46:39 10° NE
Cosmos 1455 2.9 02:40:02 10° NNW 02:43:25 33° W 02:44:16 29° WSW
STARLINK-1238 4.2 02:39:27 10° NW 02:43:32 59° NNE 02:47:38 10° ESE
CZ-2D R/B 4.1 02:40:09 10° NNE 02:44:12 53° E 02:47:41 14° S
STARLINK-1372 4.1 02:43:57 23° W 02:45:46 42° NNW 02:49:08 10° NE
Cosmos 2074 Rocket 4.1 02:40:25 14° S 02:45:54 84° E 02:52:14 10° N
USA 234 4.0 02:39:51 10° ENE 02:46:02 43° SE 02:51:07 15° SSW
ATLAS CENTAUR R/B 2.4 02:43:33 10° NW 02:47:02 69° SW 02:55:40 10° SE
STARLINK-1378 4.1 02:46:05 21° W 02:47:59 40° NNW 02:51:22 10° NE
Cosmos 841 Rocket 3.5 02:44:27 20° SSW 02:48:07 85° ESE 02:53:23 10° NNE
STARLINK-1329 4.2 02:46:35 21° W 02:48:31 40° NNW 02:51:54 10° NE
STARLINK-1201 4.0 02:44:26 10° NW 02:48:33 65° NE 02:52:40 10° ESE
STARLINK-1365 4.2 02:47:17 20° W 02:49:15 38° NNW 02:52:35 10° NE
STARLINK-1379 4.2 02:48:13 20° W 02:50:13 39° NNW 02:53:34 10° NE
STARLINK-1362 4.2 02:48:47 20° W 02:50:49 39° NNW 02:54:10 10° NE
GP-B 4.0 02:47:44 10° NNW 02:51:41 32° W 02:53:37 22° WSW
IRS-1D 4.3 02:47:36 10° N 02:52:33 40° WNW 02:55:44 20° SW
COBE Rocket 3.9 02:48:12 10° SSE 02:53:05 85° ENE 02:58:09 10° N
STARLINK-1373 4.3 02:50:59 19° W 02:53:07 37° NNW 02:56:28 10° NE
STARLINK-1206 3.9 02:49:24 10° NW 02:53:33 71° NE 02:57:40 10° ESE
Cosmos-2242 3.5 02:51:04 10° NNW 02:55:02 39° W 02:57:20 21° SSW
STARLINK-1390 4.3 02:52:58 18° W 02:55:11 36° NNW 02:58:30 10° NE
Cosmos 1400 Rocket 2.9 02:52:08 10° N 02:56:16 86° E 03:00:24 10° S
Cosmos 2221 3.8 02:52:57 10° N 02:57:03 41° ENE 03:01:09 10° SSE
Cosmos 2184 Rocket 3.9 02:51:54 13° S 02:57:26 83° W 03:03:38 10° N
ATLAS 3B R/B 4.0 02:53:55 10° WNW 02:58:18 18° WSW 02:59:50 17° WSW
STARLINK-1205 3.8 02:54:22 10° NW 02:58:32 77° NE 03:02:39 10° ESE
SL-08 R/B 3.3 02:54:12 11° S 02:58:38 58° W 03:03:15 10° NNW
CZ-4C R/B 3.8 02:55:37 10° SSE 02:59:06 55° ENE 03:02:41 10° N
STARLINK-1218 3.7 02:59:20 10° NW 03:03:29 84° NE 03:07:37 10° SE
Cosmos 1763 Rocket 4.3 03:03:46 17° WSW 03:07:03 35° WNW 03:11:43 10° N
CZ-2D R/B 4.0 03:05:24 10° NNW 03:08:24 16° WNW 03:11:24 10° W
STARLINK-1254 3.6 03:04:19 10° NW 03:08:28 89° SW 03:12:37 10° SE
Cosmos 2227 Rocket 2.7 03:03:49 10° NW 03:08:58 37° WSW 03:14:06 10° S
Cosmos 1697 Rocket 3.1 03:04:56 17° SW 03:09:07 52° WNW 03:14:40 10° NNE
ADEOS II 2.9 03:06:30 10° N 03:11:16 36° WNW 03:15:03 15° SW
STARLINK-1228 4.4 03:09:28 10° W 03:11:59 20° SW 03:14:30 10° S
STARLINK-1231 3.5 03:09:19 10° NW 03:13:28 82° SW 03:17:36 10° SE
STARLINK-1212 3.8 03:11:10 10° WNW 03:13:49 26° SW 03:16:27 10° SSE
STARLINK-1105 3.8 03:11:39 10° WNW 03:14:17 25° SW 03:16:54 10° SSE
SL-16 R/B 4.0 03:10:28 10° SSE 03:15:09 27° ESE 03:19:52 10° NE
STARLINK-1247 3.9 03:12:34 10° WNW 03:15:13 25° SW 03:17:50 10° S
STARLINK-1227 3.9 03:13:03 10° WNW 03:15:39 25° SW 03:18:14 10° S
Cosmos 1610 Rocket 4.5 03:10:01 10° S 03:16:08 88° W 03:22:18 10° N
Cosmos 1315 Rocket 3.8 03:12:28 10° N 03:16:17 48° ENE 03:20:04 10° SSE
STARLINK-1226 3.9 03:13:55 10° WNW 03:16:30 24° SW 03:19:06 10° S
STARLINK-1215 3.9 03:14:52 10° WNW 03:17:27 24° SW 03:20:02 10° S
Resurs 1-4 Rocket 4.2 03:15:33 10° NNW 03:17:48 13° WNW 03:20:02 10° W
CZ-2C R/B 2.7 03:14:25 10° NNE 03:18:08 85° ESE 03:21:52 10° SSW
STARLINK-1232 3.5 03:14:18 10° NW 03:18:26 75° SW 03:22:34 10° SE
STARLINK-1217 4.0 03:16:40 10° WNW 03:19:12 23° SW 03:21:44 10° S
MSX 4.3 03:13:30 10° NNE 03:19:14 61° ESE 03:24:53 10° S
H-2A R/B 2.0 03:15:15 10° S 03:19:30 66° WSW 03:23:53 10° NNW
STARLINK-1229 4.0 03:17:36 10° WNW 03:20:08 22° SW 03:22:38 10° S
STARLINK-1270 4.1 03:18:29 10° W 03:20:59 22° SW 03:23:29 10° S
STARLINK-1189 4.1 03:20:22 10° W 03:22:49 21° SW 03:25:15 10° S
ARIANE 5 R/B 3.0 03:18:05 10° N 03:22:52 43° WNW 03:27:15 12° SW
BREEZE-M R/B 4.4 03:20:26 10° WNW 03:23:02 19° NNW 03:25:04 10° NE
STARLINK-1208 3.5 03:19:16 10° NW 03:23:23 68° SW 03:27:29 10° SE
STARLINK-1188 4.1 03:21:16 10° W 03:23:41 21° SW 03:26:07 10° S
deb Chang Zheng 4 4.5 03:20:00 10° NNE 03:24:11 47° E 03:28:19 10° S
STARLINK-1235 4.5 03:23:57 15° WSW 03:24:16 16° SW 03:26:12 10° S
STARLINK-1187 4.3 03:22:33 10° W 03:24:44 18° SW 03:26:54 10° S
STARLINK-1191 4.2 03:23:48 10° W 03:26:07 19° SW 03:28:26 10° S
STARLINK-1221 4.2 03:24:41 10° W 03:26:59 19° SW 03:29:18 10° S
STARLINK-1222 4.3 03:25:37 10° W 03:27:53 19° SW 03:30:09 10° S
STARLINK-1271 3.6 03:24:17 10° WNW 03:28:23 62° SW 03:32:27 10° SE
BREEZE-M DEB (TANK) 1.0 03:26:32 10° WNW 03:28:36 65° SSW 03:31:19 10° SE
STARLINK-1214 4.3 03:26:33 10° W 03:28:46 18° SW 03:31:00 10° S
Spot 4 Rocket 4.3 03:23:49 10° N 03:28:49 53° WNW 03:33:47 10° SSW
SL-24 DEB 4.2 03:24:41 10° N 03:29:21 88° W 03:33:57 10° S
Cosmos 2154 Rocket 4.0 03:23:08 10° SSW 03:29:25 73° W 03:35:42 10° N
Lacrosse 4 Rocket 1.4 03:26:18 10° NNW 03:30:37 70° WSW 03:34:45 10° SSE
Cosmos 2058 3.2 03:26:40 10° S 03:30:48 70° E 03:34:59 10° NNE
Meteor 1-27 4.3 03:26:17 10° NNW 03:31:43 56° W 03:37:07 10° S
USA 129 1.6 03:30:50 10° N 03:32:32 33° WNW 03:33:05 22° WSW
STARLINK-1154 3.7 03:29:17 10° WNW 03:33:21 56° SW 03:37:23 10° SE
SJ 16-02 3.2 03:31:45 10° WNW 03:34:03 14° W 03:36:11 10° SW
Cosmos 2298 Rocket 4.0 03:29:24 10° NNW 03:34:44 86° WSW 03:40:02 10° SSE
IDEFIX/ARIANE 42P 2.7 03:31:38 10° N 03:36:52 65° WNW 03:42:04 10° SSW
STARLINK 1040 2.6 03:35:58 12° SW 03:38:16 60° SE 03:40:49 10° ENE
STARLINK-1197 3.8 03:34:17 10° WNW 03:38:18 51° SW 03:42:18 10° SSE
CZ-4C R/B 3.1 03:36:07 10° WSW 03:40:45 36° NW 03:46:13 10° NNE
STARLINK-26 4.4 03:38:20 10° SSW 03:41:27 33° SE 03:44:35 10° ENE
STARLINK-1198 3.9 03:39:15 10° WNW 03:43:14 46° SW 03:47:11 10° SSE
Cosmos 1842 Rocket 4.0 03:40:44 10° NNW 03:45:01 45° W 03:49:17 10° SSW
Cosmos 1408 3.4 03:42:18 10° S 03:45:54 53° E 03:49:32 10° NNE
STARLINK-1199 4.0 03:44:19 10° WNW 03:48:14 42° SW 03:52:07 10° SSE
Meteor 2-2 Rocket 4.4 03:43:32 10° NNW 03:49:32 68° W 03:55:29 10° S
Uosat 12 SS-18 rocket 4.1 03:45:38 10° NW 03:49:54 66° WSW 03:54:32 10° SSE
ADEOS 4.3 03:47:06 10° NNE 03:52:15 56° E 03:57:22 10° S
CZ-4B R/B 1.4 03:50:06 10° SSE 03:53:08 75° ENE 03:56:10 10° N
STARLINK-1210 4.1 03:49:19 10° WNW 03:53:10 38° SW 03:56:59 10° SSE
Cosmos 2360 Rocket 4.4 03:49:50 10° SSE 03:54:16 24° ESE 03:58:42 10° NE
